ROMMA est une association bénévole à but non lucratif. Votre soutien est indispensable : ADHERER à ROMMA ou FAIRE un DON

Le Versoud - (38, Isère)

Vallée du Grésivaudan (220 m)   Longitude: 05° 51' 44" E   Latitude: 45° 13' 06" N Station partenaire n°6
 

Détail journalier du     <<     >>

Température Precipitation Humidité Pression Vent Dir Rafale Dir. rafale Ensol.
Heure (°C) (mm) (%) (hPa) (km/h) (km/h) (min)
01:00 6.7077101700---0
02:00 6.1080101600---0
03:00 5.5082101600---0
04:00 5.2083101600---0
05:00 4.9084101700---0
06:00 4.7086101700---0
07:00 4.4086101600---0
08:00 3.6089101700---0
09:00 3.7089101700---0
10:00 8.7067101700---55
11:00 9.9060101700---60
12:00 11.3053101605ENE60
13:00 13.6043101606S60
14:00 14.70361015010SSE60
15:00 15.80291014010ONO60
16:00 15.80271014015OSO60
17:00 16.6025101408ONO60
18:00 14.80331013010O45
19:00 11.0043101403OSO0
20:00 8.7052101500---0
21:00 6.9059101500---0
22:00 5.8065101500---0
23:00 4.9069101500---0
minuit 4.1072101500---0

Graphique du 05-03-2019

 

Serveur OMMA